Time,TemperatureF,DewpointF,PressureIn,WindDirection,WindDirectionDegrees,WindSpeedMPH,WindSpeedGustMPH,Humidity,HourlyPrecipIn,Conditions,Clouds,dailyrainin,SoftwareType,DateUTC
2013-01-23 00:05:00,51.3,43.0,30.02,SSE,165,0.0,0.0,74,0.00,,,0.00,weatherlink.com 1.10,2013-01-23 08:05:00,
2013-01-23 00:20:00,52.0,43.0,30.00,ESE,106,2.0,2.0,71,0.00,,,0.00,weatherlink.com 1.10,2013-01-23 08:20:00,
2013-01-23 00:35:00,52.6,43.0,30.01,SE,127,2.0,3.0,69,0.00,,,0.00,weatherlink.com 1.10,2013-01-23 08:35:00,
2013-01-23 00:50:00,53.2,42.0,30.01,East,81,1.0,2.0,67,0.00,,,0.00,weatherlink.com 1.10,2013-01-23 08:50:00,
2013-01-23 01:05:00,53.3,42.0,30.01,East,91,1.0,1.0,66,0.00,,,0.00,weatherlink.com 1.10,2013-01-23 09:05:00,
2013-01-23 01:20:00,53.7,42.0,30.01,ESE,122,0.0,2.0,65,0.00,,,0.00,weatherlink.com 1.10,2013-01-23 09:20:00,
2013-01-23 01:35:00,53.1,42.0,30.00,NE,45,0.0,0.0,67,0.00,,,0.00,weatherlink.com 1.10,2013-01-23 09:35:00,
2013-01-23 01:50:00,54.2,42.0,30.00,SE,135,1.0,3.0,64,0.00,,,0.00,weatherlink.com 1.10,2013-01-23 09:50:00,
2013-01-23 02:05:00,54.2,42.0,29.99,ENE,70,0.0,1.0,64,0.00,,,0.00,weatherlink.com 1.10,2013-01-23 10:05:00,
2013-01-23 02:20:00,52.9,43.0,29.98,ESE,109,0.0,1.0,68,0.00,,,0.00,weatherlink.com 1.10,2013-01-23 10:20:00,
2013-01-23 02:35:00,52.1,43.0,30.00,SW,232,0.0,1.0,72,0.00,,,0.00,weatherlink.com 1.10,2013-01-23 10:35:00,
2013-01-23 02:50:00,52.7,43.0,29.99,East,94,1.0,2.0,69,0.00,,,0.00,weatherlink.com 1.10,2013-01-23 10:50:00,
2013-01-23 03:05:00,55.3,41.0,29.97,SE,129,3.0,4.0,60,0.00,,,0.00,weatherlink.com 1.10,2013-01-23 11:05:00,
2013-01-23 03:20:00,54.7,42.0,29.98,South,170,1.0,3.0,63,0.00,,,0.00,weatherlink.com 1.10,2013-01-23 11:20:00,
2013-01-23 03:35:00,52.7,43.0,29.97,ENE,64,2.0,2.0,69,0.00,,,0.00,weatherlink.com 1.10,2013-01-23 11:35:00,
2013-01-23 03:50:00,54.5,41.0,29.96,East,95,6.0,9.0,61,0.00,,,0.00,weatherlink.com 1.10,2013-01-23 11:50:00,
2013-01-23 04:05:00,53.5,43.0,29.96,WSW,238,2.0,2.0,67,0.00,,,0.00,weatherlink.com 1.10,2013-01-23 12:05:00,
2013-01-23 04:20:00,51.3,43.0,29.96,SE,131,1.0,2.0,74,0.00,,,0.00,weatherlink.com 1.10,2013-01-23 12:20:00,
2013-01-23 04:36:00,51.8,42.0,29.96,East,89,1.0,3.0,70,0.00,,,0.00,weatherlink.com 1.10,2013-01-23 12:36:00,
2013-01-23 04:51:00,52.8,42.0,29.96,SE,139,2.0,6.0,68,0.00,,,0.00,weatherlink.com 1.10,2013-01-23 12:51:00,
2013-01-23 05:06:00,52.8,41.0,29.95,ENE,67,0.0,2.0,65,0.00,,,0.00,weatherlink.com 1.10,2013-01-23 13:06:00,
2013-01-23 05:21:00,52.4,42.0,29.93,NW,325,0.0,2.0,67,0.00,,,0.00,weatherlink.com 1.10,2013-01-23 13:21:00,
2013-01-23 05:36:00,52.0,42.0,29.94,SE,131,0.0,2.0,70,0.00,,,0.00,weatherlink.com 1.10,2013-01-23 13:36:00,
2013-01-23 05:51:00,51.6,43.0,29.96,SW,229,0.0,2.0,73,0.00,,,0.00,weatherlink.com 1.10,2013-01-23 13:51:00,
2013-01-23 06:06:00,51.0,43.0,29.96,ENE,77,0.0,2.0,75,0.00,,,0.00,weatherlink.com 1.10,2013-01-23 14:06:00,
2013-01-23 06:21:00,52.5,43.0,29.95,South,187,3.0,10.0,70,0.00,,,0.00,weatherlink.com 1.10,2013-01-23 14:21:00,
2013-01-23 06:36:00,52.1,43.0,29.96,SSW,204,0.0,2.0,72,0.00,,,0.00,weatherlink.com 1.10,2013-01-23 14:36:00,
2013-01-23 06:51:00,52.3,42.0,29.96,ESE,113,2.0,3.0,69,0.00,,,0.00,weatherlink.com 1.10,2013-01-23 14:51:00,
2013-01-23 07:06:00,53.0,42.0,29.96,SSE,159,1.0,6.0,67,0.00,,,0.00,weatherlink.com 1.10,2013-01-23 15:06:00,
2013-01-23 07:21:00,52.9,43.0,29.97,SW,221,1.0,2.0,69,0.00,,,0.00,weatherlink.com 1.10,2013-01-23 15:21:00,
2013-01-23 07:36:00,51.5,44.0,29.97,ESE,106,1.0,2.0,75,0.00,,,0.00,weatherlink.com 1.10,2013-01-23 15:36:00,
2013-01-23 07:51:00,51.7,43.0,29.98,SSE,166,0.0,1.0,73,0.00,,,0.00,weatherlink.com 1.10,2013-01-23 15:51:00,
2013-01-23 08:06:00,51.5,43.0,29.97,WSW,240,0.0,1.0,74,0.00,,,0.00,weatherlink.com 1.10,2013-01-23 16:06:00,
2013-01-23 08:21:00,51.6,44.0,29.98,SSE,152,0.0,0.0,75,0.00,,,0.00,weatherlink.com 1.10,2013-01-23 16:21:00,
2013-01-23 08:36:00,52.1,44.0,29.98,SSE,152,0.0,0.0,73,0.00,,,0.00,weatherlink.com 1.10,2013-01-23 16:36:00,
2013-01-23 08:51:00,52.7,44.0,29.98,SE,125,0.0,0.0,73,0.00,,,0.00,weatherlink.com 1.10,2013-01-23 16:51:00,
2013-01-23 09:06:00,53.7,44.0,29.98,ESE,119,0.0,1.0,69,0.00,,,0.00,weatherlink.com 1.10,2013-01-23 17:06:00,
2013-01-23 09:21:00,55.5,41.0,29.99,SE,146,4.0,6.0,59,0.00,,,0.00,weatherlink.com 1.10,2013-01-23 17:21:00,
2013-01-23 09:36:00,54.3,45.0,30.00,NNE,22,0.0,4.0,71,0.00,,,0.00,weatherlink.com 1.10,2013-01-23 17:36:00,
2013-01-23 09:51:00,53.5,45.0,30.01,WNW,294,1.0,4.0,74,0.00,,,0.00,weatherlink.com 1.10,2013-01-23 17:51:00,
2013-01-23 10:06:00,53.4,46.0,30.01,SW,214,1.0,1.0,76,0.00,,,0.00,weatherlink.com 1.10,2013-01-23 18:06:00,
2013-01-23 10:21:00,53.8,46.0,30.01,SW,219,0.0,1.0,75,0.00,,,0.00,weatherlink.com 1.10,2013-01-23 18:21:00,
2013-01-23 10:36:00,54.5,47.0,30.01,SW,221,0.0,1.0,75,0.00,,,0.00,weatherlink.com 1.10,2013-01-23 18:36:00,
2013-01-23 10:51:00,54.5,47.0,30.02,West,269,1.0,2.0,76,0.00,,,0.00,weatherlink.com 1.10,2013-01-23 18:51:00,
2013-01-23 11:06:00,54.1,48.0,30.02,WNW,297,0.0,1.0,80,0.00,,,0.00,weatherlink.com 1.10,2013-01-23 19:06:00,
2013-01-23 11:21:00,54.1,48.0,30.02,WNW,297,0.0,1.0,81,0.00,,,0.00,weatherlink.com 1.10,2013-01-23 19:21:00,
2013-01-23 11:36:00,54.2,48.0,30.02,WNW,300,0.0,1.0,80,0.00,,,0.00,weatherlink.com 1.10,2013-01-23 19:36:00,
2013-01-23 11:51:00,54.4,50.0,30.02,WNW,294,0.0,0.0,84,0.00,,,0.00,weatherlink.com 1.10,2013-01-23 19:51:00,
2013-01-23 12:06:00,53.9,49.0,30.00,ENE,67,3.0,4.0,84,0.01,,,0.01,weatherlink.com 1.10,2013-01-23 20:06:00,
2013-01-23 12:21:00,54.1,47.0,29.99,ENE,63,2.0,3.0,78,0.01,,,0.01,weatherlink.com 1.10,2013-01-23 20:21:00,
2013-01-23 12:36:00,54.7,49.0,29.99,NW,305,0.0,2.0,81,0.01,,,0.01,weatherlink.com 1.10,2013-01-23 20:36:00,
2013-01-23 12:51:00,54.6,50.0,29.99,NW,324,0.0,0.0,83,0.01,,,0.01,weatherlink.com 1.10,2013-01-23 20:51:00,
2013-01-23 13:06:00,54.6,50.0,29.99,NE,40,0.0,0.0,85,0.01,,,0.02,weatherlink.com 1.10,2013-01-23 21:06:00,
2013-01-23 13:21:00,54.3,50.0,29.99,East,92,0.0,2.0,84,0.02,,,0.03,weatherlink.com 1.10,2013-01-23 21:21:00,
2013-01-23 13:36:00,54.1,50.0,29.99,East,98,0.0,0.0,86,0.03,,,0.04,weatherlink.com 1.10,2013-01-23 21:36:00,
2013-01-23 13:51:00,54.0,51.0,30.00,SSW,210,0.0,1.0,88,0.04,,,0.05,weatherlink.com 1.10,2013-01-23 21:51:00,
2013-01-23 14:06:00,53.9,51.0,29.99,SSW,207,0.0,0.0,88,0.03,,,0.05,weatherlink.com 1.10,2013-01-23 22:06:00,
2013-01-23 14:21:00,52.6,49.0,29.99,ESE,113,0.0,5.0,87,0.02,,,0.05,weatherlink.com 1.10,2013-01-23 22:21:00,
2013-01-23 14:37:00,53.0,50.0,30.01,WNW,289,4.0,4.0,90,0.03,,,0.07,weatherlink.com 1.10,2013-01-23 22:37:00,
2013-01-23 14:51:00,51.4,49.0,30.03,NW,316,2.0,7.0,90,0.08,,,0.13,weatherlink.com 1.10,2013-01-23 22:51:00,
2013-01-23 15:06:00,50.5,48.0,30.03,ESE,123,1.0,2.0,91,0.11,,,0.16,weatherlink.com 1.10,2013-01-23 23:06:00,
2013-01-23 15:21:00,50.3,48.0,30.04,NNE,12,1.0,3.0,92,0.12,,,0.17,weatherlink.com 1.10,2013-01-23 23:21:00,
2013-01-23 15:36:00,50.1,48.0,30.03,NNW,335,1.0,1.0,92,0.12,,,0.19,weatherlink.com 1.10,2013-01-23 23:36:00,
2013-01-23 15:51:00,50.2,48.0,30.03,NW,315,0.0,2.0,93,0.06,,,0.19,weatherlink.com 1.10,2013-01-23 23:51:00,
2013-01-23 16:06:00,50.8,49.0,30.04,ESE,109,0.0,3.0,93,0.05,,,0.21,weatherlink.com 1.10,2013-01-24 00:06:00,
2013-01-23 16:21:00,51.2,49.0,30.02,NE,35,1.0,2.0,93,0.05,,,0.22,weatherlink.com 1.10,2013-01-24 00:21:00,
2013-01-23 16:36:00,50.8,49.0,30.02,East,90,2.0,2.0,93,0.03,,,0.22,weatherlink.com 1.10,2013-01-24 00:36:00,
2013-01-23 16:51:00,50.8,49.0,30.03,ENE,68,2.0,4.0,93,0.03,,,0.22,weatherlink.com 1.10,2013-01-24 00:51:00,
2013-01-23 17:06:00,50.9,49.0,30.03,East,86,5.0,6.0,94,0.01,,,0.22,weatherlink.com 1.10,2013-01-24 01:06:00,
2013-01-23 17:21:00,51.8,50.0,30.03,ESE,111,3.0,4.0,93,0.00,,,0.22,weatherlink.com 1.10,2013-01-24 01:21:00,
2013-01-23 17:36:00,52.5,50.0,30.03,NE,34,2.0,5.0,92,0.00,,,0.22,weatherlink.com 1.10,2013-01-24 01:36:00,
2013-01-23 17:51:00,53.1,51.0,30.04,East,95,3.0,5.0,92,0.00,,,0.22,weatherlink.com 1.10,2013-01-24 01:51:00,
2013-01-23 18:07:00,53.2,51.0,30.05,SSE,150,2.0,3.0,92,0.00,,,0.22,weatherlink.com 1.10,2013-01-24 02:07:00,
2013-01-23 18:21:00,52.5,50.0,30.05,South,170,1.0,6.0,92,0.00,,,0.22,weatherlink.com 1.10,2013-01-24 02:21:00,
2013-01-23 18:37:00,51.5,50.0,30.04,SSE,159,0.0,2.0,93,0.01,,,0.23,weatherlink.com 1.10,2013-01-24 02:37:00,
2013-01-23 18:52:00,51.4,50.0,30.03,NW,319,0.0,0.0,94,0.01,,,0.23,weatherlink.com 1.10,2013-01-24 02:52:00,
2013-01-23 19:06:00,51.3,50.0,30.03,NW,321,0.0,0.0,94,0.01,,,0.23,weatherlink.com 1.10,2013-01-24 03:06:00,
2013-01-23 19:37:00,51.1,50.0,30.05,ESE,123,1.0,3.0,95,0.00,,,0.23,weatherlink.com 1.10,2013-01-24 03:37:00,
2013-01-23 19:52:00,51.2,50.0,30.04,WSW,239,0.0,2.0,95,0.00,,,0.23,weatherlink.com 1.10,2013-01-24 03:52:00,
2013-01-23 20:07:00,50.9,50.0,30.05,SW,219,0.0,2.0,95,0.00,,,0.23,weatherlink.com 1.10,2013-01-24 04:07:00,
2013-01-23 20:22:00,51.0,50.0,30.06,SW,225,0.0,2.0,96,0.00,,,0.23,weatherlink.com 1.10,2013-01-24 04:22:00,
2013-01-23 20:37:00,50.5,49.0,30.06,WSW,255,1.0,3.0,95,0.00,,,0.23,weatherlink.com 1.10,2013-01-24 04:37:00,
2013-01-23 20:52:00,50.2,49.0,30.07,SSW,210,1.0,2.0,96,0.00,,,0.23,weatherlink.com 1.10,2013-01-24 04:52:00,
2013-01-23 21:07:00,50.1,49.0,30.06,NNE,18,0.0,0.0,96,0.01,,,0.24,weatherlink.com 1.10,2013-01-24 05:07:00,
2013-01-23 21:22:00,50.3,49.0,30.05,NNW,332,0.0,3.0,96,0.01,,,0.24,weatherlink.com 1.10,2013-01-24 05:22:00,
2013-01-23 21:52:00,51.0,50.0,30.05,ENE,64,3.0,6.0,97,0.01,,,0.25,weatherlink.com 1.10,2013-01-24 05:52:00,
2013-01-23 22:07:00,50.4,49.0,30.06,East,91,8.0,12.0,95,0.01,,,0.25,weatherlink.com 1.10,2013-01-24 06:07:00,
2013-01-23 22:22:00,49.3,48.0,30.06,ESE,106,7.0,15.0,95,0.01,,,0.25,weatherlink.com 1.10,2013-01-24 06:22:00,
2013-01-23 22:37:00,49.1,48.0,30.05,East,93,8.0,14.0,95,0.00,,,0.25,weatherlink.com 1.10,2013-01-24 06:37:00,
2013-01-23 22:52:00,49.1,48.0,30.06,ESE,105,5.0,15.0,94,0.00,,,0.25,weatherlink.com 1.10,2013-01-24 06:52:00,
2013-01-23 23:07:00,48.9,47.0,30.07,East,95,9.0,19.0,94,0.00,,,0.25,weatherlink.com 1.10,2013-01-24 07:07:00,
2013-01-23 23:22:00,48.9,47.0,30.06,East,97,6.0,14.0,94,0.00,,,0.25,weatherlink.com 1.10,2013-01-24 07:22:00,
2013-01-23 23:37:00,49.1,47.0,30.06,ESE,115,9.0,17.0,93,0.00,,,0.25,weatherlink.com 1.10,2013-01-24 07:37:00,
2013-01-23 23:52:00,49.3,47.0,30.06,East,94,10.0,16.0,93,0.00,,,0.25,weatherlink.com 1.10,2013-01-24 07:52:00,